Theta_e
352 361 361 355 354 354 353 350 345 329 332 337 340 352 359 357 360 356 359 350 348 346 344 344 345 347 350 353 355 355 356 356 356 355 355 356 358 358
355 359 363 358 357 357 353 352 350 347 337 341 343 347 360 360 359 362 361 356 347 346 344 342 343 345 346 348 349 350 351 352 352 351 350 350 352 354
362 357 358 362 357 355 354 354 351 351 345 349 354 359 363 358 357 362 365 361 358 345 344 343 341 342 344 344 345 346 347 348 348 348 348 348 348 350
361 361 358 355 361 358 358 353 349 355 350 345 349 350 353 360 364 361 362 354 356 352 344 342 341 340 339 340 340 340 341 342 343 342 343 344 346 347
357 356 356 359 356 357 360 356 354 351 353 349 345 348 348 350 358 360 361 360 360 355 341 341 340 339 337 336 335 334 334 334 335 335 336 337 340 343
359 358 359 354 355 355 355 357 354 353 353 352 349 348 349 350 355 350 350 356 354 359 352 349 345 342 339 334 334 333 329 328 328 328 329 330 332 335
359 357 357 353 349 350 356 355 355 351 350 347 346 349 349 347 347 351 349 347 349 354 352 353 352 348 346 340 345 339 333 329 326 325 324 324 325 327
354 359 359 355 355 344 343 343 349 352 350 349 344 345 347 348 351 352 346 345 342 355 354 350 353 352 353 353 346 339 333 331 328 325 323 321 321 322
357 356 355 349 352 360 348 340 340 339 341 350 347 347 347 349 353 350 347 350 348 352 354 346 349 348 351 350 340 335 333 330 328 326 324 322 320 319
356 358 358 357 357 357 357 354 356 356 354 348 349 351 352 353 352 350 350 348 348 351 353 343 349 347 351 342 333 332 329 329 327 323 321 318 317 314
353 357 359 358 345 341 354 353 352 351 345 340 342 341 340 338 339 344 339 337 335 337 345 347 346 346 348 344 336 328 325 322 320 319 319 318 314 312
357 357 341 349 330 330 353 352 347 349 350 351 351 345 338 344 335 344 344 338 336 334 345 340 342 342 338 345 341 337 329 319 316 315 315 314 311 320
348 351 354 326 324 326 326 351 346 339 346 347 345 346 346 346 349 346 347 344 342 339 340 344 341 340 338 337 337 332 329 328 327 326 316 311 309 315
347 349 336 321 323 326 330 332 328 329 343 341 340 338 338 339 342 349 352 352 349 345 344 342 337 335 333 329 328 329 328 325 325 324 321 311 309 310
350 333 323 319 319 322 319 323 324 339 339 336 334 335 339 340 342 340 348 349 351 347 344 341 338 336 331 328 326 327 323 324 323 321 319 317 317 317
331 331 330 331 329 333 330 326 334 338 337 335 336 337 340 338 336 338 335 338 340 340 343 341 338 334 328 328 325 325 322 317 317 317 317 316 317 317
340 347 341 341 338 338 336 338 337 338 336 336 335 336 335 336 336 339 338 335 332 333 335 333 331 328 325 322 321 322 319 316 316 315 314 312 314 315
340 344 340 339 338 340 340 337 335 334 336 337 337 336 332 334 334 335 335 336 334 334 333 331 327 326 322 317 316 318 316 315 314 314 312 309 309 314
340 340 337 337 340 339 336 334 332 334 338 336 335 334 333 333 331 333 333 332 331 332 330 327 323 321 317 315 313 311 313 313 312 311 310 310 308 311
337 336 336 338 340 337 336 334 332 334 333 332 332 332 330 329 328 329 329 328 327 326 326 323 320 319 316 314 312 311 308 312 311 309 308 309 310 313
335 336 341 339 336 336 336 336 335 334 331 332 331 329 330 328 325 324 324 313 315 323 320 319 318 317 315 313 310 309 311 310 312 311 308 306 305 306
336 340 340 339 338 338 337 336 333 330 329 328 327 326 325 325 323 324 323 321 321 320 318 317 318 317 314 313 311 308 308 311 312 312 313 311 307 303
341 341 338 339 338 337 334 331 329 327 326 327 325 324 324 323 323 321 321 319 318 317 316 315 316 316 315 313 310 309 309 309 310 309 311 313 313 314
Wind_Speed
9 5 3 5 4 3 2 7 6 4 2 3 4 10 4 4 7 7 8 15 17 16 15 14 15 15 15 15 14 14 13 12 12 11 10 11 14 15
6 6 4 3 4 4 3 3 4 2 2 8 7 9 5 4 6 4 2 10 14 14 15 16 16 17 16 16 15 15 14 13 13 12 12 12 12 13
3 3 5 3 3 3 3 4 3 3 4 2 1 5 2 3 4 5 5 6 6 17 19 17 16 16 16 16 16 16 15 15 14 14 13 12 12 12
6 4 5 4 2 4 3 4 2 3 1 3 3 4 3 5 6 5 5 5 5 7 17 14 15 15 15 16 15 15 16 15 15 14 13 13 12 12
7 5 6 6 4 4 4 4 2 2 2 1 3 3 5 4 4 3 4 7 3 12 12 13 16 17 14 13 15 16 17 16 16 16 14 13 12 12
6 8 4 6 6 6 3 5 6 3 3 3 3 3 2 3 5 2 3 3 4 6 7 11 12 13 9 4 9 13 16 17 17 16 15 14 14 13
5 3 5 6 4 1 2 4 3 2 3 4 5 4 2 2 2 3 1 1 10 4 6 2 3 3 7 11 12 19 20 18 16 16 16 15 14 14
5 5 6 6 6 7 6 8 6 3 4 3 6 6 7 4 4 3 3 3 5 4 2 4 1 3 5 6 17 21 18 15 16 16 16 14 13 13
4 4 5 7 2 2 4 4 7 7 9 6 7 8 8 7 4 6 6 5 6 6 4 8 3 6 4 2 11 15 14 14 5 8 11 12 12 12
4 6 7 6 7 4 4 4 5 6 6 7 10 10 7 5 4 4 6 8 7 8 8 8 5 5 2 3 8 9 7 5 6 6 7 8 10 9
8 7 6 6 3 2 4 4 4 6 9 9 8 6 5 7 6 1 5 6 7 5 4 3 2 4 3 1 4 9 8 6 3 2 5 8 8 8
6 9 11 9 7 7 4 3 4 4 5 4 2 4 7 9 11 8 6 5 6 6 1 4 4 3 4 4 4 3 3 3 3 3 3 5 6 3
7 4 3 9 11 6 1 3 2 3 6 5 6 5 5 7 9 9 11 8 5 4 2 2 3 3 1 3 1 2 2 2 2 2 4 7 5 6
4 5 5 7 9 6 3 5 5 3 4 5 6 5 6 6 4 3 5 5 5 5 4 4 1 2 2 2 3 2 1 2 3 2 3 3 4 4
1 4 10 9 8 6 11 10 5 3 4 5 6 7 5 3 4 4 4 6 5 5 3 4 3 1 1 3 3 2 3 2 3 3 3 3 2 0
6 6 9 10 11 5 1 5 5 6 7 6 4 3 3 4 3 4 4 3 1 2 6 5 3 2 2 2 1 2 1 2 2 2 2 2 1 1
6 4 3 4 6 7 6 7 6 4 5 3 2 2 2 3 4 4 3 4 5 3 1 3 5 4 4 2 2 1 0 1 1 1 1 1 2 1
3 2 3 4 4 4 2 4 4 5 4 5 4 3 3 3 4 3 4 3 4 4 4 4 4 4 2 1 2 2 2 1 1 1 1 1 1 1
3 4 5 5 4 2 4 4 2 2 4 3 2 3 4 4 5 4 4 3 4 2 3 3 3 1 3 3 2 7 2 1 1 1 1 0 1 1
4 5 5 5 2 4 3 3 4 2 3 3 3 3 4 5 6 5 4 4 5 5 3 3 1 1 2 1 1 2 5 1 1 1 1 1 3 4
7 7 4 2 5 4 3 2 2 2 1 1 1 3 3 3 4 4 4 3 2 4 4 2 2 3 2 2 1 1 1 3 2 2 2 1 1 1
4 3 2 5 4 2 2 2 1 0 1 1 1 2 2 1 2 3 3 3 2 2 2 1 1 1 1 2 1 2 1 1 2 4 5 3 3 3
3 2 5 3 3 4 3 2 1 2 2 1 1 1 1 2 1 1 2 1 1 0 1 0 0 1 1 1 2 2 2 2 2 2 3 10 10 8
Wind_Direction
260 224 249 280 284 210 219 165 164 206 330 267 264 294 187 187 151 178 178 197 202 208 210 210 215 219 220 224 226 227 227 230 232 233 241 239 229 230
234 204 238 302 346 319 313 344 342 353 141 210 241 231 263 86 175 202 179 160 203 212 216 215 216 219 220 221 221 225 224 224 226 231 233 236 233 230
266 183 237 261 286 325 29 319 312 353 357 338 351 194 175 176 192 198 204 208 206 214 217 214 215 219 218 221 221 223 222 223 223 225 228 233 233 230
218 235 269 248 240 296 285 281 294 321 111 290 290 317 294 229 215 199 228 257 247 230 217 210 212 220 221 220 221 224 222 220 221 223 224 225 230 225
241 246 233 242 246 271 297 292 294 356 338 264 278 274 288 247 246 230 227 236 252 278 212 211 213 215 218 228 224 221 220 222 219 221 223 224 226 225
241 233 248 311 205 225 269 288 291 322 300 297 276 281 277 348 337 341 346 347 317 293 230 211 205 223 229 269 278 250 227 217 218 219 221 222 223 225
299 319 266 198 109 203 231 244 283 341 315 323 301 328 331 347 280 282 53 40 278 288 288 305 227 157 200 204 251 242 238 226 219 219 217 220 223 225
265 281 294 308 272 268 239 250 233 231 249 240 271 286 290 301 280 296 306 218 239 226 331 295 304 196 239 220 236 226 222 227 233 219 222 218 222 225
225 261 274 274 307 303 256 293 274 247 226 243 255 257 271 283 305 301 294 282 276 287 290 279 261 266 261 329 233 220 218 222 218 244 234 243 232 226
259 228 221 248 262 255 249 259 250 252 230 223 224 241 239 268 265 275 283 282 280 270 257 263 259 253 250 93 56 89 105 125 206 205 244 236 238 225
234 245 239 241 246 181 235 251 287 290 293 238 247 222 196 219 225 281 269 274 286 290 322 314 335 323 332 125 83 71 60 60 69 231 242 237 238 233
222 223 223 227 193 171 207 233 265 289 352 360 201 232 238 239 219 208 238 247 261 279 29 1 358 31 334 72 121 137 136 116 159 138 54 329 287 262
258 270 216 152 133 157 130 297 296 339 319 309 298 279 256 248 230 214 220 221 249 280 25 7 2 343 315 316 33 74 21 348 329 341 38 22 306 228
292 95 112 134 135 160 178 231 206 255 270 277 273 286 291 282 275 107 158 190 192 205 132 107 217 241 295 290 258 63 3 332 328 350 8 21 36 55
2 124 150 169 179 209 231 226 204 231 251 258 257 257 258 305 310 314 252 213 174 139 167 151 234 211 155 274 294 318 358 60 9 355 4 349 341 349
187 182 190 198 209 230 178 199 219 230 234 240 243 277 325 357 349 335 322 328 257 226 164 154 200 134 258 251 279 316 62 306 16 353 347 3 10 78
192 210 189 220 238 235 225 221 188 212 247 280 358 1 315 323 311 315 300 318 298 273 193 145 100 78 66 344 276 203 340 246 314 123 48 29 9 57
172 213 245 249 262 262 88 73 55 2 24 353 330 320 307 319 298 293 299 297 295 284 286 131 164 170 144 133 5 284 162 226 191 140 116 107 0 68
191 219 236 240 243 126 104 64 25 307 327 289 350 343 327 301 319 306 304 306 310 354 81 67 45 45 261 255 128 47 338 90 155 144 113 116 170 228
244 236 236 229 196 88 98 147 170 231 271 277 333 333 333 344 325 328 359 11 359 7 34 61 1 241 237 299 350 56 36 336 181 168 121 56 57 79
200 220 217 75 90 95 97 124 190 79 59 328 314 339 333 313 333 356 3 35 8 313 307 328 44 48 90 106 75 57 73 10 300 159 135 91 69 67
239 217 76 87 97 142 111 93 94 174 194 334 331 304 321 340 334 344 357 345 332 349 32 71 120 100 23 277 237 157 144 62 31 161 201 178 176 195
189 190 121 127 170 167 138 143 253 321 29 246 220 275 317 280 244 67 17 357 18 325 157 148 204 203 242 317 53 137 163 172 178 199 227 243 253 266